Time,TemperatureF,DewpointF,PressureIn,WindDirection,WindDirectionDegrees,WindSpeedMPH,WindSpeedGustMPH,Humidity,HourlyPrecipIn,Conditions,Clouds,dailyrainin,SoftwareType,DateUTC
2013-03-22 00:03:00,48.9,28.5,29.94,NW,315,2.0,2.0,45,0.00,,---,0.00,VWS V14.01,2013-03-22 07:03:00,
2013-03-22 00:08:00,48.9,29.6,29.94,NNW,338,2.2,2.7,47,0.00,,---,0.00,VWS V14.01,2013-03-22 07:08:00,
2013-03-22 00:13:00,48.7,29.4,29.94,West,270,1.6,3.4,47,0.00,,---,0.00,VWS V14.01,2013-03-22 07:13:00,
2013-03-22 00:19:00,48.4,29.1,29.94,NW,315,1.6,1.6,47,0.00,,---,0.00,VWS V14.01,2013-03-22 07:19:00,
2013-03-22 00:24:00,48.2,28.9,29.94,WNW,292,2.9,2.9,47,0.00,,---,0.00,VWS V14.01,2013-03-22 07:24:00,
2013-03-22 00:29:00,48.2,28.9,29.94,NW,315,2.2,3.6,47,0.00,,---,0.00,VWS V14.01,2013-03-22 07:29:00,
2013-03-22 00:34:00,48.0,29.3,29.94,NNE,22,2.9,3.1,48,0.00,,---,0.00,VWS V14.01,2013-03-22 07:34:00,
2013-03-22 00:39:00,47.8,28.6,29.94,NNW,338,1.6,1.6,47,0.00,,---,0.00,VWS V14.01,2013-03-22 07:39:00,
2013-03-22 00:44:00,47.8,29.1,29.94,North,0,4.9,4.9,48,0.00,,---,0.00,VWS V14.01,2013-03-22 07:44:00,
2013-03-22 00:49:00,47.8,29.1,29.94,NNW,338,2.9,3.8,48,0.00,,---,0.00,VWS V14.01,2013-03-22 07:49:00,
2013-03-22 00:54:00,48.2,28.4,29.94,NNW,338,5.8,5.8,46,0.00,,---,0.00,VWS V14.01,2013-03-22 07:54:00,
2013-03-22 00:59:00,48.7,27.8,29.94,NW,315,3.6,9.8,44,0.00,,---,0.00,VWS V14.01,2013-03-22 07:59:00,
2013-03-22 01:04:00,49.1,27.6,29.94,NNE,22,3.1,4.0,43,0.00,,---,0.00,VWS V14.01,2013-03-22 08:04:00,
2013-03-22 01:09:00,49.3,27.2,29.94,NW,315,2.5,5.4,42,0.00,,---,0.00,VWS V14.01,2013-03-22 08:09:00,
2013-03-22 01:14:00,49.5,26.8,29.94,NNW,338,2.5,4.3,41,0.00,,---,0.00,VWS V14.01,2013-03-22 08:14:00,
2013-03-22 01:19:00,49.6,26.9,29.94,NNW,338,4.9,6.0,41,0.00,,---,0.00,VWS V14.01,2013-03-22 08:19:00,
2013-03-22 01:24:00,49.8,26.5,29.94,WNW,292,6.0,7.8,40,0.00,,---,0.00,VWS V14.01,2013-03-22 08:24:00,
2013-03-22 01:29:00,50.0,26.0,29.94,NNE,22,4.9,6.9,39,0.00,,---,0.00,VWS V14.01,2013-03-22 08:29:00,
2013-03-22 01:34:00,50.2,25.6,29.94,WNW,292,2.9,8.1,38,0.00,,---,0.00,VWS V14.01,2013-03-22 08:34:00,
2013-03-22 01:39:00,50.5,25.9,29.94,NW,315,8.1,8.1,38,0.00,,---,0.00,VWS V14.01,2013-03-22 08:39:00,
2013-03-22 01:44:00,50.5,25.2,29.94,NNE,22,5.4,7.6,37,0.00,,---,0.00,VWS V14.01,2013-03-22 08:44:00,
2013-03-22 01:49:00,50.7,25.4,29.94,NNW,338,2.9,2.9,37,0.00,,---,0.00,VWS V14.01,2013-03-22 08:49:00,
2013-03-22 01:54:00,50.5,25.2,29.94,NNE,22,3.6,3.6,37,0.00,,---,0.00,VWS V14.01,2013-03-22 08:54:00,
2013-03-22 01:59:00,50.4,25.1,29.94,WNW,292,5.6,5.6,37,0.00,,---,0.00,VWS V14.01,2013-03-22 08:59:00,
2013-03-22 02:04:00,50.4,25.7,29.94,NNE,22,4.7,7.8,38,0.00,,---,0.00,VWS V14.01,2013-03-22 09:04:00,
2013-03-22 02:09:00,50.2,25.6,29.97,NNE,22,3.8,6.0,38,0.00,,---,0.00,VWS V14.01,2013-03-22 09:09:00,
2013-03-22 02:15:00,49.8,25.2,29.97,WNW,292,8.1,8.1,38,0.00,,---,0.00,VWS V14.01,2013-03-22 09:15:00,
2013-03-22 02:20:00,49.5,25.5,29.97,NW,315,3.1,3.1,39,0.00,,---,0.00,VWS V14.01,2013-03-22 09:20:00,
2013-03-22 02:25:00,49.3,25.4,29.97,NNW,338,8.5,8.5,39,0.00,,---,0.00,VWS V14.01,2013-03-22 09:25:00,
2013-03-22 02:30:00,48.9,25.7,29.97,North,0,3.8,5.4,40,0.00,,---,0.00,VWS V14.01,2013-03-22 09:30:00,
2013-03-22 02:35:00,48.7,25.5,29.97,WNW,292,3.6,6.0,40,0.00,,---,0.00,VWS V14.01,2013-03-22 09:35:00,
2013-03-22 02:40:00,48.6,26.0,29.97,WNW,292,5.6,6.0,41,0.00,,---,0.00,VWS V14.01,2013-03-22 09:40:00,
2013-03-22 02:45:00,48.4,25.8,29.97,NNE,22,5.6,5.6,41,0.00,,---,0.00,VWS V14.01,2013-03-22 09:45:00,
2013-03-22 02:50:00,48.0,26.0,29.97,NNW,338,4.3,4.3,42,0.00,,---,0.00,VWS V14.01,2013-03-22 09:50:00,
2013-03-22 02:55:00,47.7,26.3,29.97,North,0,2.5,3.6,43,0.00,,---,0.00,VWS V14.01,2013-03-22 09:55:00,
2013-03-22 03:00:00,47.7,26.3,29.97,NW,315,3.4,6.0,43,0.00,,---,0.00,VWS V14.01,2013-03-22 10:00:00,
2013-03-22 03:05:00,47.5,26.1,29.97,NW,315,2.7,3.6,43,0.00,,---,0.00,VWS V14.01,2013-03-22 10:05:00,
2013-03-22 03:10:00,47.1,26.3,29.97,NW,315,2.0,2.9,44,0.00,,---,0.00,VWS V14.01,2013-03-22 10:10:00,
2013-03-22 03:15:00,46.8,26.6,29.97,WNW,292,2.5,3.1,45,0.00,,---,0.00,VWS V14.01,2013-03-22 10:15:00,
2013-03-22 03:20:00,46.4,26.2,29.97,WNW,292,2.0,2.0,45,0.00,,---,0.00,VWS V14.01,2013-03-22 10:20:00,
2013-03-22 03:25:00,46.2,27.1,29.97,WNW,292,3.6,3.6,47,0.00,,---,0.00,VWS V14.01,2013-03-22 10:25:00,
2013-03-22 03:30:00,45.9,26.8,29.97,NNE,22,3.1,3.1,47,0.00,,---,0.00,VWS V14.01,2013-03-22 10:30:00,
2013-03-22 03:35:00,45.5,27.0,29.97,NW,315,2.2,2.5,48,0.00,,---,0.00,VWS V14.01,2013-03-22 10:35:00,
2013-03-22 03:41:00,45.3,26.8,29.97,NW,315,2.9,4.0,48,0.00,,---,0.00,VWS V14.01,2013-03-22 10:41:00,
2013-03-22 03:46:00,45.1,26.6,29.97,NNW,338,4.0,4.0,48,0.00,,---,0.00,VWS V14.01,2013-03-22 10:46:00,
2013-03-22 03:51:00,44.8,26.8,29.97,NW,315,3.6,3.8,49,0.00,,---,0.00,VWS V14.01,2013-03-22 10:51:00,
2013-03-22 03:56:00,44.4,27.0,29.97,NNW,338,2.9,4.0,50,0.00,,---,0.00,VWS V14.01,2013-03-22 10:56:00,
2013-03-22 04:01:00,44.2,26.8,29.97,NNW,338,2.9,2.9,50,0.00,,---,0.00,VWS V14.01,2013-03-22 11:01:00,
2013-03-22 04:06:00,44.1,26.6,29.97,NNW,338,4.0,4.0,50,0.00,,---,0.00,VWS V14.01,2013-03-22 11:06:00,
2013-03-22 04:11:00,44.1,27.1,29.97,NNW,338,2.9,5.4,51,0.00,,---,0.00,VWS V14.01,2013-03-22 11:11:00,
2013-03-22 04:16:00,43.9,26.9,29.97,NNW,338,4.0,4.7,51,0.00,,---,0.00,VWS V14.01,2013-03-22 11:16:00,
2013-03-22 04:21:00,43.9,26.9,29.97,North,0,2.5,3.1,51,0.00,,---,0.00,VWS V14.01,2013-03-22 11:21:00,
2013-03-22 04:27:00,43.7,26.8,29.97,WNW,292,3.6,3.6,51,0.00,,---,0.00,VWS V14.01,2013-03-22 11:27:00,
2013-03-22 04:32:00,43.5,26.6,29.97,NNE,22,1.6,3.6,51,0.00,,---,0.00,VWS V14.01,2013-03-22 11:32:00,
2013-03-22 04:37:00,43.3,26.4,29.97,NW,315,2.2,3.1,51,0.00,,---,0.00,VWS V14.01,2013-03-22 11:37:00,
2013-03-22 04:42:00,43.2,26.3,29.97,NNW,338,2.7,3.4,51,0.00,,---,0.00,VWS V14.01,2013-03-22 11:42:00,
2013-03-22 04:47:00,43.3,26.0,29.97,NNW,338,2.0,5.6,50,0.00,,---,0.00,VWS V14.01,2013-03-22 11:47:00,
2013-03-22 04:52:00,43.2,25.8,29.97,NW,315,4.3,4.3,50,0.00,,---,0.00,VWS V14.01,2013-03-22 11:52:00,
2013-03-22 04:57:00,43.3,26.0,29.94,NNE,22,5.8,6.3,50,0.00,,---,0.00,VWS V14.01,2013-03-22 11:57:00,
2013-03-22 05:02:00,43.7,25.8,29.94,WNW,292,2.9,3.8,49,0.00,,---,0.00,VWS V14.01,2013-03-22 12:02:00,
2013-03-22 05:07:00,43.9,26.0,29.97,WNW,292,2.7,2.7,49,0.00,,---,0.00,VWS V14.01,2013-03-22 12:07:00,
2013-03-22 05:12:00,44.1,25.6,29.97,NNW,338,3.6,4.3,48,0.00,,---,0.00,VWS V14.01,2013-03-22 12:12:00,
2013-03-22 05:17:00,44.2,25.8,29.97,NNE,22,7.2,7.2,48,0.00,,---,0.00,VWS V14.01,2013-03-22 12:17:00,
2013-03-22 05:22:00,44.2,25.3,29.97,WNW,292,2.9,9.8,47,0.00,,---,0.00,VWS V14.01,2013-03-22 12:22:00,
2013-03-22 05:27:00,44.4,25.5,29.97,WNW,292,2.9,5.6,47,0.00,,---,0.00,VWS V14.01,2013-03-22 12:27:00,
2013-03-22 05:33:00,44.2,25.3,29.97,West,270,3.6,7.8,47,0.00,,---,0.00,VWS V14.01,2013-03-22 12:33:00,
2013-03-22 05:38:00,44.2,24.8,29.97,NNW,338,4.0,4.3,46,0.00,,---,0.00,VWS V14.01,2013-03-22 12:38:00,
2013-03-22 05:43:00,44.1,25.1,29.97,WNW,292,1.3,5.4,47,0.00,,---,0.00,VWS V14.01,2013-03-22 12:43:00,
2013-03-22 05:48:00,43.9,25.0,29.97,NNW,338,3.1,3.8,47,0.00,,---,0.00,VWS V14.01,2013-03-22 12:48:00,
2013-03-22 05:53:00,43.9,25.0,29.97,NNW,338,3.6,4.0,47,0.00,,---,0.00,VWS V14.01,2013-03-22 12:53:00,
2013-03-22 05:58:00,43.7,24.8,29.97,NNW,338,2.2,3.6,47,0.00,,---,0.00,VWS V14.01,2013-03-22 12:58:00,
2013-03-22 06:03:00,43.5,25.1,29.97,WNW,292,2.5,3.4,48,0.00,,---,0.00,VWS V14.01,2013-03-22 13:03:00,
2013-03-22 06:08:00,43.5,24.6,29.97,WNW,292,2.0,2.9,47,0.00,,---,0.00,VWS V14.01,2013-03-22 13:08:00,
2013-03-22 06:14:00,43.3,25.0,29.97,NNW,338,3.4,5.4,48,0.00,,---,0.00,VWS V14.01,2013-03-22 13:14:00,
2013-03-22 06:19:00,43.3,24.5,29.97,NNW,338,4.9,8.5,47,0.00,,---,0.00,VWS V14.01,2013-03-22 13:19:00,
2013-03-22 06:24:00,43.3,25.0,30.00,WNW,292,7.6,7.6,48,0.00,,---,0.00,VWS V14.01,2013-03-22 13:24:00,
2013-03-22 06:29:00,43.5,24.6,30.00,NW,315,3.4,5.6,47,0.00,,---,0.00,VWS V14.01,2013-03-22 13:29:00,
2013-03-22 06:34:00,43.5,24.6,30.00,NW,315,7.8,7.8,47,0.00,,---,0.00,VWS V14.01,2013-03-22 13:34:00,
2013-03-22 06:39:00,43.2,24.3,29.97,WNW,292,3.1,4.9,47,0.00,,---,0.00,VWS V14.01,2013-03-22 13:39:00,
2013-03-22 06:44:00,43.0,24.1,29.97,NNW,338,3.8,4.9,47,0.00,,---,0.00,VWS V14.01,2013-03-22 13:44:00,
2013-03-22 06:49:00,42.8,24.5,29.97,NNW,338,2.0,5.4,48,0.00,,---,0.00,VWS V14.01,2013-03-22 13:49:00,
2013-03-22 06:54:00,42.8,24.5,29.97,NNW,338,2.9,2.9,48,0.00,,---,0.00,VWS V14.01,2013-03-22 13:54:00,
2013-03-22 06:59:00,42.6,24.3,29.97,NNW,338,3.4,5.6,48,0.00,,---,0.00,VWS V14.01,2013-03-22 13:59:00,
2013-03-22 07:04:00,42.6,24.3,29.97,NNW,338,4.9,5.4,48,0.00,,---,0.00,VWS V14.01,2013-03-22 14:04:00,
2013-03-22 07:09:00,42.6,24.3,29.97,WNW,292,2.5,6.0,48,0.00,,---,0.00,VWS V14.01,2013-03-22 14:09:00,
2013-03-22 07:14:00,42.4,24.1,29.97,WNW,292,2.7,2.7,48,0.00,,---,0.00,VWS V14.01,2013-03-22 14:14:00,
2013-03-22 07:19:00,42.4,24.1,29.97,NNW,338,2.5,6.0,48,0.00,,---,0.00,VWS V14.01,2013-03-22 14:19:00,
2013-03-22 07:24:00,42.4,24.1,29.97,NNW,338,2.7,3.1,48,0.00,,---,0.00,VWS V14.01,2013-03-22 14:24:00,
2013-03-22 07:29:00,42.3,24.5,29.97,NNW,338,2.2,2.2,49,0.00,,---,0.00,VWS V14.01,2013-03-22 14:29:00,
2013-03-22 07:34:00,42.3,24.5,29.97,NNW,338,2.2,2.2,49,0.00,,---,0.00,VWS V14.01,2013-03-22 14:34:00,
2013-03-22 07:39:00,42.3,24.5,29.97,North,0,1.3,1.6,49,0.00,,---,0.00,VWS V14.01,2013-03-22 14:39:00,
2013-03-22 07:44:00,42.4,24.6,29.97,NNW,338,3.6,3.6,49,0.00,,---,0.00,VWS V14.01,2013-03-22 14:44:00,
2013-03-22 07:49:00,42.6,24.8,29.97,WNW,292,2.5,2.5,49,0.00,,---,0.00,VWS V14.01,2013-03-22 14:49:00,
2013-03-22 07:54:00,42.6,24.8,30.00,NW,315,2.7,3.4,49,0.00,,---,0.00,VWS V14.01,2013-03-22 14:54:00,
2013-03-22 07:59:00,43.0,24.6,30.00,WNW,292,2.0,3.4,48,0.00,,---,0.00,VWS V14.01,2013-03-22 14:59:00,
2013-03-22 08:04:00,43.3,25.0,30.00,WNW,292,2.9,3.8,48,0.00,,---,0.00,VWS V14.01,2013-03-22 15:04:00,
2013-03-22 08:10:00,43.7,24.8,30.00,NNW,338,7.2,7.2,47,0.00,,---,0.00,VWS V14.01,2013-03-22 15:10:00,
2013-03-22 08:15:00,44.1,25.1,30.00,NNW,338,2.5,4.9,47,0.00,,---,0.00,VWS V14.01,2013-03-22 15:15:00,
2013-03-22 08:20:00,45.1,25.1,30.00,SSW,202,2.0,3.4,45,0.00,,---,0.00,VWS V14.01,2013-03-22 15:20:00,
2013-03-22 08:25:00,45.9,24.6,30.00,NNW,338,2.5,2.5,43,0.00,,---,0.00,VWS V14.01,2013-03-22 15:25:00,
2013-03-22 08:30:00,46.2,24.4,30.00,WNW,292,8.7,10.1,42,0.00,,---,0.00,VWS V14.01,2013-03-22 15:30:00,
2013-03-22 08:35:00,46.8,24.3,30.00,WNW,292,4.9,4.9,41,0.00,,---,0.00,VWS V14.01,2013-03-22 15:35:00,
2013-03-22 08:40:00,47.1,24.1,29.97,NNW,338,4.9,7.4,40,0.00,,---,0.00,VWS V14.01,2013-03-22 15:40:00,
2013-03-22 08:45:00,47.7,24.5,29.97,WNW,292,5.4,5.4,40,0.00,,---,0.00,VWS V14.01,2013-03-22 15:45:00,
2013-03-22 08:50:00,47.8,24.1,29.97,North,0,3.4,5.6,39,0.00,,---,0.00,VWS V14.01,2013-03-22 15:50:00,
2013-03-22 08:57:00,48.4,24.6,29.97,WSW,248,5.4,12.3,39,0.00,,---,0.00,VWS V14.01,2013-03-22 15:57:00,
2013-03-22 09:02:00,48.9,24.5,29.97,NNE,22,2.7,5.8,38,0.00,,---,0.00,VWS V14.01,2013-03-22 16:02:00,
2013-03-22 09:07:00,49.5,24.9,29.97,NNW,338,4.7,4.7,38,0.00,,---,0.00,VWS V14.01,2013-03-22 16:07:00,
2013-03-22 09:12:00,50.7,25.4,29.97,NNE,22,5.6,5.6,37,0.00,,---,0.00,VWS V14.01,2013-03-22 16:12:00,
2013-03-22 09:17:00,51.4,26.0,29.97,NNW,338,3.4,3.4,37,0.00,,---,0.00,VWS V14.01,2013-03-22 16:17:00,
2013-03-22 09:22:00,51.6,25.6,29.94,NW,315,4.3,6.0,36,0.00,,---,0.00,VWS V14.01,2013-03-22 16:22:00,
2013-03-22 09:27:00,52.9,26.7,29.94,NNW,338,4.3,5.8,36,0.00,,---,0.00,VWS V14.01,2013-03-22 16:27:00,
2013-03-22 09:32:00,53.4,25.1,29.94,NW,315,7.8,9.4,33,0.00,,---,0.00,VWS V14.01,2013-03-22 16:32:00,
2013-03-22 09:38:00,53.4,23.6,29.94,NNW,338,5.8,8.7,31,0.00,,---,0.00,VWS V14.01,2013-03-22 16:38:00,
2013-03-22 09:43:00,54.5,26.0,29.94,WNW,292,4.9,5.6,33,0.00,,---,0.00,VWS V14.01,2013-03-22 16:43:00,
2013-03-22 09:48:00,54.9,24.0,29.94,NW,315,5.8,8.5,30,0.00,,---,0.00,VWS V14.01,2013-03-22 16:48:00,
2013-03-22 09:53:00,55.6,23.9,29.97,NW,315,3.4,3.4,29,0.00,,---,0.00,VWS V14.01,2013-03-22 16:53:00,
2013-03-22 09:58:00,55.9,24.2,29.97,NNW,338,13.2,13.2,29,0.00,,---,0.00,VWS V14.01,2013-03-22 16:58:00,
2013-03-22 10:03:00,56.7,24.0,29.97,WSW,248,6.9,6.9,28,0.00,,---,0.00,VWS V14.01,2013-03-22 17:03:00,
2013-03-22 10:08:00,57.6,23.9,29.97,NNW,338,4.3,5.4,27,0.00,,---,0.00,VWS V14.01,2013-03-22 17:08:00,
2013-03-22 10:13:00,58.3,23.6,29.97,NW,315,6.0,6.3,26,0.00,,---,0.00,VWS V14.01,2013-03-22 17:13:00,
2013-03-22 10:19:00,58.6,23.9,29.97,WNW,292,5.4,12.1,26,0.00,,---,0.00,VWS V14.01,2013-03-22 17:19:00,
2013-03-22 10:24:00,59.5,23.7,29.97,NNW,338,5.4,5.4,25,0.00,,---,0.00,VWS V14.01,2013-03-22 17:24:00,
2013-03-22 10:29:00,59.5,23.7,29.97,NW,315,6.5,6.5,25,0.00,,---,0.00,VWS V14.01,2013-03-22 17:29:00,
2013-03-22 10:34:00,60.3,23.4,29.97,West,270,4.7,7.4,24,0.00,,---,0.00,VWS V14.01,2013-03-22 17:34:00,
2013-03-22 10:39:00,60.6,23.6,29.97,East,90,3.6,5.8,24,0.00,,---,0.00,VWS V14.01,2013-03-22 17:39:00,
2013-03-22 10:44:00,61.2,24.1,29.97,NW,315,4.3,4.5,24,0.00,,---,0.00,VWS V14.01,2013-03-22 17:44:00,
2013-03-22 10:49:00,61.9,24.7,29.97,NNW,338,6.3,6.3,24,0.00,,---,0.00,VWS V14.01,2013-03-22 17:49:00,
2013-03-22 10:54:00,61.7,21.4,29.97,WNW,292,5.6,6.0,21,0.00,,---,0.00,VWS V14.01,2013-03-22 17:54:00,
2013-03-22 10:59:00,63.0,22.5,29.97,NNW,338,4.3,4.3,21,0.00,,---,0.00,VWS V14.01,2013-03-22 17:59:00,
2013-03-22 11:04:00,62.6,18.5,29.97,WNW,292,5.4,5.4,18,0.00,,---,0.00,VWS V14.01,2013-03-22 18:04:00,
2013-03-22 11:09:00,63.5,19.3,29.94,NNW,338,4.0,6.3,18,0.00,,---,0.00,VWS V14.01,2013-03-22 18:09:00,
2013-03-22 11:14:00,63.0,18.8,29.94,WSW,248,5.8,5.8,18,0.00,,---,0.00,VWS V14.01,2013-03-22 18:14:00,
2013-03-22 11:19:00,63.7,19.4,29.94,NNW,338,5.6,12.1,18,0.00,,---,0.00,VWS V14.01,2013-03-22 18:19:00,
2013-03-22 11:25:00,64.8,20.3,29.94,NNE,22,6.0,7.8,18,0.00,,---,0.00,VWS V14.01,2013-03-22 18:25:00,
2013-03-22 11:30:00,64.0,19.7,29.94,North,0,8.1,12.3,18,0.00,,---,0.00,VWS V14.01,2013-03-22 18:30:00,
2013-03-22 11:35:00,64.6,20.1,29.94,NNW,338,6.3,7.2,18,0.00,,---,0.00,VWS V14.01,2013-03-22 18:35:00,
2013-03-22 11:40:00,64.8,20.3,29.94,WNW,292,10.3,10.3,18,0.00,,---,0.00,VWS V14.01,2013-03-22 18:40:00,
2013-03-22 11:45:00,64.8,20.3,29.94,NW,315,4.7,8.5,18,0.00,,---,0.00,VWS V14.01,2013-03-22 18:45:00,
2013-03-22 11:50:00,65.8,21.2,29.94,West,270,4.3,5.6,18,0.00,,---,0.00,VWS V14.01,2013-03-22 18:50:00,
2013-03-22 11:55:00,65.3,16.5,29.94,NNE,22,4.9,10.5,15,0.00,,---,0.00,VWS V14.01,2013-03-22 18:55:00,
2013-03-22 12:01:00,65.8,21.2,29.94,NE,45,3.1,10.1,18,0.00,,---,0.00,VWS V14.01,2013-03-22 19:01:00,
2013-03-22 12:06:00,65.1,20.6,29.94,West,270,5.8,5.8,18,0.00,,---,0.00,VWS V14.01,2013-03-22 19:06:00,
2013-03-22 12:11:00,65.1,20.6,29.94,NW,315,7.8,9.0,18,0.00,,---,0.00,VWS V14.01,2013-03-22 19:11:00,
2013-03-22 12:16:00,64.9,20.4,29.94,WNW,292,3.8,8.5,18,0.00,,---,0.00,VWS V14.01,2013-03-22 19:16:00,
2013-03-22 12:21:00,64.9,16.2,29.94,North,0,5.8,17.2,15,0.00,,---,0.00,VWS V14.01,2013-03-22 19:21:00,
2013-03-22 12:26:00,64.8,16.1,29.94,NNW,338,6.0,10.7,15,0.00,,---,0.00,VWS V14.01,2013-03-22 19:26:00,
2013-03-22 12:32:00,65.5,16.6,29.94,WNW,292,4.3,10.5,15,0.00,,---,0.00,VWS V14.01,2013-03-22 19:32:00,
2013-03-22 12:37:00,66.4,20.3,29.94,NNE,22,3.4,15.2,17,0.00,,---,0.00,VWS V14.01,2013-03-22 19:37:00,
2013-03-22 12:42:00,65.8,16.9,29.91,NW,315,8.1,8.1,15,0.00,,---,0.00,VWS V14.01,2013-03-22 19:42:00,
2013-03-22 12:47:00,65.7,16.8,29.91,NNW,338,4.3,5.4,15,0.00,,---,0.00,VWS V14.01,2013-03-22 19:47:00,
2013-03-22 12:52:00,64.9,16.2,29.91,WSW,248,7.4,7.4,15,0.00,,---,0.00,VWS V14.01,2013-03-22 19:52:00,
2013-03-22 12:57:00,64.9,16.2,29.91,ENE,68,10.3,10.3,15,0.00,,---,0.00,VWS V14.01,2013-03-22 19:57:00,
2013-03-22 13:02:00,64.9,20.4,29.91,NNE,22,14.1,14.1,18,0.00,,---,0.00,VWS V14.01,2013-03-22 20:02:00,
2013-03-22 13:08:00,65.7,21.0,29.88,NE,45,5.4,12.1,18,0.00,,---,0.00,VWS V14.01,2013-03-22 20:08:00,
2013-03-22 13:13:00,65.7,16.8,29.88,WNW,292,6.5,16.1,15,0.00,,---,0.00,VWS V14.01,2013-03-22 20:13:00,
2013-03-22 13:18:00,65.8,16.9,29.88,WNW,292,10.3,10.3,15,0.00,,---,0.00,VWS V14.01,2013-03-22 20:18:00,
2013-03-22 13:23:00,65.8,16.9,29.88,WNW,292,9.8,16.6,15,0.00,,---,0.00,VWS V14.01,2013-03-22 20:23:00,
2013-03-22 13:28:00,65.7,16.8,29.88,NNW,338,5.8,10.3,15,0.00,,---,0.00,VWS V14.01,2013-03-22 20:28:00,
2013-03-22 13:33:00,66.2,17.2,29.88,NNW,338,3.1,12.5,15,0.00,,---,0.00,VWS V14.01,2013-03-22 20:33:00,
2013-03-22 13:38:00,66.9,20.7,29.91,NNW,338,5.4,5.8,17,0.00,,---,0.00,VWS V14.01,2013-03-22 20:38:00,
2013-03-22 13:43:00,67.3,21.0,29.91,WNW,292,4.9,8.1,17,0.00,,---,0.00,VWS V14.01,2013-03-22 20:43:00,
2013-03-22 13:48:00,66.7,20.6,29.91,WNW,292,12.8,12.8,17,0.00,,---,0.00,VWS V14.01,2013-03-22 20:48:00,
2013-03-22 13:53:00,66.9,17.8,29.91,NNW,338,13.0,13.0,15,0.00,,---,0.00,VWS V14.01,2013-03-22 20:53:00,
2013-03-22 13:58:00,66.6,20.4,29.91,WNW,292,12.3,17.5,17,0.00,,---,0.00,VWS V14.01,2013-03-22 20:58:00,
2013-03-22 14:03:00,66.7,17.6,29.91,WNW,292,8.7,10.5,15,0.00,,---,0.00,VWS V14.01,2013-03-22 21:03:00,
2013-03-22 14:09:00,66.4,17.4,29.91,NW,315,9.8,9.8,15,0.00,,---,0.00,VWS V14.01,2013-03-22 21:09:00,
2013-03-22 14:14:00,67.1,20.9,29.91,NE,45,5.8,9.2,17,0.00,,---,0.00,VWS V14.01,2013-03-22 21:14:00,
2013-03-22 14:19:00,66.9,17.8,29.91,North,0,6.3,14.8,15,0.00,,---,0.00,VWS V14.01,2013-03-22 21:19:00,
2013-03-22 14:24:00,67.8,21.5,29.91,NW,315,6.5,7.2,17,0.00,,---,0.00,VWS V14.01,2013-03-22 21:24:00,
2013-03-22 14:29:00,67.3,18.1,29.91,NW,315,6.3,9.8,15,0.00,,---,0.00,VWS V14.01,2013-03-22 21:29:00,
2013-03-22 14:34:00,67.6,18.4,29.91,NW,315,8.1,13.2,15,0.00,,---,0.00,VWS V14.01,2013-03-22 21:34:00,
2013-03-22 14:39:00,67.6,18.4,29.88,NE,45,7.6,11.0,15,0.00,,---,0.00,VWS V14.01,2013-03-22 21:39:00,
2013-03-22 14:44:00,68.4,19.0,29.88,SSW,202,13.0,13.0,15,0.00,,---,0.00,VWS V14.01,2013-03-22 21:44:00,
2013-03-22 14:49:00,67.5,18.2,29.88,NNW,338,10.1,14.3,15,0.00,,---,0.00,VWS V14.01,2013-03-22 21:49:00,
2013-03-22 14:54:00,68.2,18.8,29.88,WNW,292,9.2,10.3,15,0.00,,---,0.00,VWS V14.01,2013-03-22 21:54:00,
2013-03-22 14:59:00,69.1,19.5,29.88,NNW,338,7.4,7.4,15,0.00,,---,0.00,VWS V14.01,2013-03-22 21:59:00,
2013-03-22 15:04:00,67.8,18.5,29.88,NW,315,9.8,13.0,15,0.00,,---,0.00,VWS V14.01,2013-03-22 22:04:00,
2013-03-22 15:09:00,68.0,18.7,29.88,NNW,338,11.0,11.0,15,0.00,,---,0.00,VWS V14.01,2013-03-22 22:09:00,
2013-03-22 15:14:00,68.2,21.7,29.88,West,270,4.0,6.3,17,0.00,,---,0.00,VWS V14.01,2013-03-22 22:14:00,
2013-03-22 15:19:00,68.2,21.7,29.88,NNW,338,9.6,9.8,17,0.00,,---,0.00,VWS V14.01,2013-03-22 22:19:00,
2013-03-22 15:24:00,68.0,18.7,29.85,North,0,8.1,12.1,15,0.00,,---,0.00,VWS V14.01,2013-03-22 22:24:00,
2013-03-22 15:29:00,68.0,18.7,29.85,NNW,338,7.8,9.8,15,0.00,,---,0.00,VWS V14.01,2013-03-22 22:29:00,
2013-03-22 15:34:00,68.2,18.8,29.85,NNW,338,6.5,9.0,15,0.00,,---,0.00,VWS V14.01,2013-03-22 22:34:00,
2013-03-22 15:39:00,69.1,22.5,29.85,North,0,5.4,8.5,17,0.00,,---,0.00,VWS V14.01,2013-03-22 22:39:00,
2013-03-22 15:44:00,69.4,19.8,29.85,NNE,22,9.8,11.2,15,0.00,,---,0.00,VWS V14.01,2013-03-22 22:44:00,
2013-03-22 15:49:00,68.5,19.1,29.85,NNW,338,8.1,11.2,15,0.00,,---,0.00,VWS V14.01,2013-03-22 22:49:00,
2013-03-22 15:54:00,68.2,18.8,29.88,NNW,338,4.9,13.0,15,0.00,,---,0.00,VWS V14.01,2013-03-22 22:54:00,
2013-03-22 15:59:00,68.5,19.1,29.88,NNW,338,3.8,7.2,15,0.00,,---,0.00,VWS V14.01,2013-03-22 22:59:00,
2013-03-22 16:04:00,68.2,18.8,29.88,NNW,338,7.6,11.0,15,0.00,,---,0.00,VWS V14.01,2013-03-22 23:04:00,
2013-03-22 16:09:00,68.0,18.7,29.88,NNE,22,4.9,13.2,15,0.00,,---,0.00,VWS V14.01,2013-03-22 23:09:00,
2013-03-22 16:14:00,68.7,19.2,29.88,NNW,338,7.6,7.6,15,0.00,,---,0.00,VWS V14.01,2013-03-22 23:14:00,
2013-03-22 16:19:00,68.0,18.7,29.88,NNW,338,11.0,11.0,15,0.00,,---,0.00,VWS V14.01,2013-03-22 23:19:00,
2013-03-22 16:24:00,67.6,18.4,29.88,NW,315,7.8,7.8,15,0.00,,---,0.00,VWS V14.01,2013-03-22 23:24:00,
2013-03-22 16:29:00,68.0,18.7,29.88,ENE,68,7.6,8.7,15,0.00,,---,0.00,VWS V14.01,2013-03-22 23:29:00,
2013-03-22 16:34:00,67.6,18.4,29.88,North,0,14.8,14.8,15,0.00,,---,0.00,VWS V14.01,2013-03-22 23:34:00,
2013-03-22 16:39:00,68.2,18.8,29.85,NNE,22,4.9,7.2,15,0.00,,---,0.00,VWS V14.01,2013-03-22 23:39:00,
2013-03-22 16:44:00,67.8,18.5,29.85,NNW,338,10.1,12.1,15,0.00,,---,0.00,VWS V14.01,2013-03-22 23:44:00,
2013-03-22 16:49:00,67.6,18.4,29.85,North,0,6.5,10.5,15,0.00,,---,0.00,VWS V14.01,2013-03-22 23:49:00,
2013-03-22 16:54:00,66.9,17.8,29.85,NW,315,4.3,7.6,15,0.00,,---,0.00,VWS V14.01,2013-03-22 23:54:00,
2013-03-22 16:59:00,67.3,18.1,29.85,WNW,292,6.3,6.3,15,0.00,,---,0.00,VWS V14.01,2013-03-22 23:59:00,
2013-03-22 17:04:00,67.5,18.2,29.85,WNW,292,11.9,11.9,15,0.00,,---,0.00,VWS V14.01,2013-03-23 00:04:00,
2013-03-22 17:09:00,67.1,17.9,29.88,WNW,292,7.8,10.5,15,0.00,,---,0.00,VWS V14.01,2013-03-23 00:09:00,
2013-03-22 17:14:00,66.9,17.8,29.88,WNW,292,8.5,8.5,15,0.00,,---,0.00,VWS V14.01,2013-03-23 00:14:00,
2013-03-22 17:19:00,67.1,17.9,29.88,WNW,292,4.0,12.3,15,0.00,,---,0.00,VWS V14.01,2013-03-23 00:19:00,
2013-03-22 17:24:00,66.4,17.4,29.85,NW,315,3.4,18.8,15,0.00,,---,0.00,VWS V14.01,2013-03-23 00:24:00,
2013-03-22 17:29:00,66.7,17.6,29.85,NNW,338,8.1,8.7,15,0.00,,---,0.00,VWS V14.01,2013-03-23 00:29:00,
2013-03-22 17:34:00,67.3,18.1,29.85,WNW,292,5.8,6.0,15,0.00,,---,0.00,VWS V14.01,2013-03-23 00:34:00,
2013-03-22 17:39:00,66.4,17.4,29.85,WNW,292,11.9,12.5,15,0.00,,---,0.00,VWS V14.01,2013-03-23 00:39:00,
2013-03-22 17:44:00,65.8,16.9,29.85,NNW,338,3.6,5.8,15,0.00,,---,0.00,VWS V14.01,2013-03-23 00:44:00,
2013-03-22 17:49:00,65.8,16.9,29.85,NNW,338,9.8,9.8,15,0.00,,---,0.00,VWS V14.01,2013-03-23 00:49:00,
2013-03-22 17:54:00,65.7,16.8,29.88,NW,315,4.7,7.6,15,0.00,,---,0.00,VWS V14.01,2013-03-23 00:54:00,
2013-03-22 17:59:00,65.8,21.2,29.88,ENE,68,7.6,8.5,18,0.00,,---,0.00,VWS V14.01,2013-03-23 00:59:00,
2013-03-22 18:04:00,65.8,21.2,29.88,NNW,338,3.6,6.3,18,0.00,,---,0.00,VWS V14.01,2013-03-23 01:04:00,
2013-03-22 18:09:00,65.3,20.7,29.88,West,270,4.0,10.3,18,0.00,,---,0.00,VWS V14.01,2013-03-23 01:09:00,
2013-03-22 18:14:00,64.8,16.1,29.88,WNW,292,6.9,10.3,15,0.00,,---,0.00,VWS V14.01,2013-03-23 01:14:00,
2013-03-22 18:19:00,64.6,20.1,29.88,NW,315,4.3,8.7,18,0.00,,---,0.00,VWS V14.01,2013-03-23 01:19:00,
2013-03-22 18:24:00,64.8,20.3,29.88,NNE,22,2.9,2.9,18,0.00,,---,0.00,VWS V14.01,2013-03-23 01:24:00,
2013-03-22 18:29:00,64.4,20.0,29.88,NNW,338,2.5,7.2,18,0.00,,---,0.00,VWS V14.01,2013-03-23 01:29:00,
2013-03-22 18:34:00,64.2,19.9,29.88,WNW,292,6.5,6.5,18,0.00,,---,0.00,VWS V14.01,2013-03-23 01:34:00,
2013-03-22 18:39:00,63.9,19.6,29.88,NNE,22,3.6,3.6,18,0.00,,---,0.00,VWS V14.01,2013-03-23 01:39:00,
2013-03-22 18:44:00,63.3,19.1,29.88,WNW,292,4.0,6.3,18,0.00,,---,0.00,VWS V14.01,2013-03-23 01:44:00,
2013-03-22 18:49:00,62.4,19.6,29.88,NNE,22,7.8,7.8,19,0.00,,---,0.00,VWS V14.01,2013-03-23 01:49:00,
2013-03-22 18:54:00,61.7,19.0,29.91,NNW,338,3.8,3.8,19,0.00,,---,0.00,VWS V14.01,2013-03-23 01:54:00,
2013-03-22 18:59:00,61.2,18.6,29.91,NNE,22,4.9,4.9,19,0.00,,---,0.00,VWS V14.01,2013-03-23 01:59:00,
2013-03-22 19:04:00,60.6,18.2,29.91,NNW,338,4.3,4.9,19,0.00,,---,0.00,VWS V14.01,2013-03-23 02:04:00,
2013-03-22 19:09:00,60.3,17.9,29.91,NNW,338,2.9,6.3,19,0.00,,---,0.00,VWS V14.01,2013-03-23 02:09:00,
2013-03-22 19:14:00,59.9,17.6,29.91,NNW,338,3.6,5.4,19,0.00,,---,0.00,VWS V14.01,2013-03-23 02:14:00,
2013-03-22 19:20:00,59.7,17.4,29.91,North,0,2.7,2.7,19,0.00,,---,0.00,VWS V14.01,2013-03-23 02:20:00,
2013-03-22 19:25:00,59.4,20.5,29.94,NNW,338,2.0,2.7,22,0.00,,---,0.00,VWS V14.01,2013-03-23 02:25:00,
2013-03-22 19:30:00,59.0,20.2,29.94,North,0,2.2,4.9,22,0.00,,---,0.00,VWS V14.01,2013-03-23 02:30:00,
2013-03-22 19:35:00,58.6,19.9,29.94,NNW,338,2.7,4.0,22,0.00,,---,0.00,VWS V14.01,2013-03-23 02:35:00,
2013-03-22 19:40:00,58.5,19.8,29.91,WNW,292,2.5,5.8,22,0.00,,---,0.00,VWS V14.01,2013-03-23 02:40:00,
2013-03-22 19:45:00,58.1,19.5,29.91,NW,315,0.9,2.7,22,0.00,,---,0.00,VWS V14.01,2013-03-23 02:45:00,
2013-03-22 19:50:00,57.4,20.9,29.91,NNE,22,0.0,0.0,24,0.00,,---,0.00,VWS V14.01,2013-03-23 02:50:00,
2013-03-22 19:55:00,57.2,21.7,29.88,NNW,338,5.6,5.6,25,0.00,,---,0.00,VWS V14.01,2013-03-23 02:55:00,
2013-03-22 20:00:00,57.0,21.6,29.88,North,0,2.7,4.0,25,0.00,,---,0.00,VWS V14.01,2013-03-23 03:00:00,
2013-03-22 20:05:00,57.2,21.7,29.88,WNW,292,2.9,3.8,25,0.00,,---,0.00,VWS V14.01,2013-03-23 03:05:00,
2013-03-22 20:10:00,57.0,21.6,29.91,NNW,338,3.1,3.1,25,0.00,,---,0.00,VWS V14.01,2013-03-23 03:10:00,
2013-03-22 20:15:00,56.7,22.2,29.91,NNW,338,1.6,2.7,26,0.00,,---,0.00,VWS V14.01,2013-03-23 03:15:00,
2013-03-22 20:20:00,56.5,22.0,29.91,North,0,5.4,5.4,26,0.00,,---,0.00,VWS V14.01,2013-03-23 03:20:00,
2013-03-22 20:26:00,56.3,21.9,29.91,NW,315,1.1,3.4,26,0.00,,---,0.00,VWS V14.01,2013-03-23 03:26:00,
2013-03-22 20:31:00,55.6,21.3,29.91,NNW,338,2.9,4.0,26,0.00,,---,0.00,VWS V14.01,2013-03-23 03:31:00,
2013-03-22 20:36:00,55.2,21.8,29.91,NW,315,1.1,3.4,27,0.00,,---,0.00,VWS V14.01,2013-03-23 03:36:00,
2013-03-22 20:41:00,54.9,22.4,29.91,NW,315,3.1,5.4,28,0.00,,---,0.00,VWS V14.01,2013-03-23 03:41:00,
2013-03-22 20:46:00,54.7,22.2,29.91,NNW,338,3.1,3.1,28,0.00,,---,0.00,VWS V14.01,2013-03-23 03:46:00,
2013-03-22 20:51:00,54.3,22.8,29.91,WNW,292,1.1,1.6,29,0.00,,---,0.00,VWS V14.01,2013-03-23 03:51:00,
2013-03-22 20:56:00,53.8,21.5,29.91,NW,315,2.5,2.5,28,0.00,,---,0.00,VWS V14.01,2013-03-23 03:56:00,
2013-03-22 21:00:00,53.4,22.8,29.91,NNW,338,4.3,4.3,30,0.00,,---,0.00,VWS V14.01,2013-03-23 04:00:00,
2013-03-22 21:01:00,53.4,22.8,29.91,WNW,292,2.7,3.1,30,0.00,,---,0.00,VWS V14.01,2013-03-23 04:01:00,
2013-03-22 21:06:00,53.4,23.6,29.91,NNE,22,2.9,2.9,31,0.00,,---,0.00,VWS V14.01,2013-03-23 04:06:00,
2013-03-22 21:12:00,53.2,23.4,29.94,North,0,1.3,3.6,31,0.00,,---,0.00,VWS V14.01,2013-03-23 04:12:00,
2013-03-22 21:17:00,52.9,23.1,29.94,West,270,2.5,2.7,31,0.00,,---,0.00,VWS V14.01,2013-03-23 04:17:00,
2013-03-22 21:22:00,52.7,22.9,29.94,NNW,338,2.0,3.1,31,0.00,,---,0.00,VWS V14.01,2013-03-23 04:22:00,
2013-03-22 21:27:00,52.5,22.8,29.94,North,0,1.6,2.0,31,0.00,,---,0.00,VWS V14.01,2013-03-23 04:27:00,
2013-03-22 21:32:00,52.2,22.5,29.94,NNW,338,2.7,3.1,31,0.00,,---,0.00,VWS V14.01,2013-03-23 04:32:00,
2013-03-22 21:37:00,52.0,22.3,29.94,NW,315,3.1,3.1,31,0.00,,---,0.00,VWS V14.01,2013-03-23 04:37:00,
2013-03-22 21:42:00,52.0,23.1,29.94,WNW,292,2.0,2.0,32,0.00,,---,0.00,VWS V14.01,2013-03-23 04:42:00,
2013-03-22 21:47:00,52.0,23.1,29.94,NNW,338,2.5,2.5,32,0.00,,---,0.00,VWS V14.01,2013-03-23 04:47:00,
2013-03-22 21:52:00,52.0,23.1,29.94,WNW,292,2.7,2.7,32,0.00,,---,0.00,VWS V14.01,2013-03-23 04:52:00,
2013-03-22 21:57:00,52.0,23.1,29.94,WSW,248,2.7,4.7,32,0.00,,---,0.00,VWS V14.01,2013-03-23 04:57:00,
2013-03-22 22:02:00,51.6,22.7,29.94,NW,315,2.7,2.7,32,0.00,,---,0.00,VWS V14.01,2013-03-23 05:02:00,
2013-03-22 22:08:00,51.3,23.2,29.94,NNW,338,5.4,5.4,33,0.00,,---,0.00,VWS V14.01,2013-03-23 05:08:00,
2013-03-22 22:13:00,51.3,23.2,29.94,North,0,3.8,4.5,33,0.00,,---,0.00,VWS V14.01,2013-03-23 05:13:00,
2013-03-22 22:18:00,50.9,22.8,29.94,NNW,338,2.5,2.7,33,0.00,,---,0.00,VWS V14.01,2013-03-23 05:18:00,
2013-03-22 22:23:00,50.4,23.1,29.94,NNW,338,2.0,2.0,34,0.00,,---,0.00,VWS V14.01,2013-03-23 05:23:00,
2013-03-22 22:28:00,50.2,23.6,29.94,NNW,338,2.5,2.7,35,0.00,,---,0.00,VWS V14.01,2013-03-23 05:28:00,
2013-03-22 22:34:00,50.2,23.6,29.94,West,270,2.0,2.9,35,0.00,,---,0.00,VWS V14.01,2013-03-23 05:34:00,
2013-03-22 22:39:00,50.0,24.1,29.94,NW,315,1.6,2.5,36,0.00,,---,0.00,VWS V14.01,2013-03-23 05:39:00,
2013-03-22 22:44:00,50.2,24.9,29.94,NNW,338,3.1,4.7,37,0.00,,---,0.00,VWS V14.01,2013-03-23 05:44:00,
2013-03-22 22:48:00,50.2,24.9,29.94,NNW,338,2.7,3.8,37,0.00,,---,0.00,VWS V14.01,2013-03-23 05:48:00,
2013-03-22 22:54:00,50.0,24.8,29.97,NW,315,3.1,3.1,37,0.00,,---,0.00,VWS V14.01,2013-03-23 05:54:00,
2013-03-22 22:59:00,49.5,24.3,29.97,North,0,2.9,2.9,37,0.00,,---,0.00,VWS V14.01,2013-03-23 05:59:00,
2013-03-22 23:04:00,49.5,24.9,29.97,NW,315,2.5,3.8,38,0.00,,---,0.00,VWS V14.01,2013-03-23 06:04:00,
2013-03-22 23:09:00,49.5,24.9,29.97,NNW,338,1.1,3.1,38,0.00,,---,0.00,VWS V14.01,2013-03-23 06:09:00,
2013-03-22 23:14:00,49.3,24.8,29.97,NW,315,1.6,1.6,38,0.00,,---,0.00,VWS V14.01,2013-03-23 06:14:00,
2013-03-22 23:19:00,49.5,24.9,29.97,North,0,2.9,2.9,38,0.00,,---,0.00,VWS V14.01,2013-03-23 06:19:00,
2013-03-22 23:24:00,49.6,25.1,29.97,NNW,338,3.6,5.6,38,0.00,,---,0.00,VWS V14.01,2013-03-23 06:24:00,
2013-03-22 23:29:00,49.5,24.9,29.97,NW,315,3.6,3.6,38,0.00,,---,0.00,VWS V14.01,2013-03-23 06:29:00,
2013-03-22 23:34:00,49.6,25.1,29.97,NW,315,2.5,3.4,38,0.00,,---,0.00,VWS V14.01,2013-03-23 06:34:00,
2013-03-22 23:39:00,49.6,25.1,29.97,WNW,292,1.1,2.7,38,0.00,,---,0.00,VWS V14.01,2013-03-23 06:39:00,
2013-03-22 23:44:00,49.6,25.1,29.97,NW,315,2.9,6.0,38,0.00,,---,0.00,VWS V14.01,2013-03-23 06:44:00,
2013-03-22 23:49:00,49.3,24.8,29.97,NNW,338,2.0,2.9,38,0.00,,---,0.00,VWS V14.01,2013-03-23 06:49:00,
2013-03-22 23:55:00,49.1,24.6,29.97,NNE,22,2.5,2.5,38,0.00,,---,0.00,VWS V14.01,2013-03-23 06:55:00,
2013-03-22 23:59:00,48.7,24.3,29.97,NNW,338,1.3,2.7,38,0.00,,---,0.00,VWS V14.01,2013-03-23 06:59:00,